This is the latest recevied weather packets stored in our database for station/object AI5BL. If no packets are shown the sender has not sent any weather packets the latest 10 day(s).
| Time | Temp. | Humidity | Pressure | Rain* | Wind** | Luminosity | Snow |
|---|---|---|---|---|---|---|---|
| 1777579780 | 21.11° C | 83% | 1014.7 hPa | 0 mm | - | 150 W/m² | - |
| 1777579478 | 21.11° C | 85% | 1014.7 hPa | 0 mm | - | 306 W/m² | - |
| 1777579173 | 21.11° C | 84% | 1014.6 hPa | 0 mm | - | 205 W/m² | - |
| 1777578869 | 20.56° C | 86% | 1014.6 hPa | 0 mm | - | 247 W/m² | - |
| 1777578565 | 20° C | 86% | 1014.9 hPa | 0 mm | - | 188 W/m² | - |
| 1777578259 | 20° C | 87% | 1014.8 hPa | 0 mm | - | 163 W/m² | - |
| 1777577955 | 20° C | 87% | 1015.1 hPa | 0 mm | - | 118 W/m² | - |
| 1777577651 | 20.56° C | 85% | 1015.1 hPa | 0 mm | - | 135 W/m² | - |
| 1777577349 | 20.56° C | 86% | 1015.1 hPa | 0 mm | - | 333 W/m² | - |
| 1777577044 | 20° C | 89% | 1015.1 hPa | 0 mm | - | 231 W/m² | - |
| 1777576741 | 20° C | 89% | 1015.1 hPa | 0 mm | - | 119 W/m² | - |
| 1777576440 | 20° C | 87% | 1015.1 hPa | 0 mm | - | 134 W/m² | - |
| 1777576137 | 20° C | 88% | 1015.3 hPa | 0 mm | - | 173 W/m² | - |
| 1777575832 | 20° C | 87% | 1015.1 hPa | 0 mm | - | 150 W/m² | - |
| 1777575529 | 20.56° C | 84% | 1014.8 hPa | 0 mm | - | 236 W/m² | - |
| 1777575224 | 20.56° C | 87% | 1014.4 hPa | 0 mm | - | 207 W/m² | - |
| 1777574921 | 20.56° C | 87% | 1014.7 hPa | 0 mm | - | 275 W/m² | - |
| 1777574618 | 20° C | 85% | 1014.8 hPa | 0 mm | - | 267 W/m² | - |
| 1777574314 | 20° C | 88% | 1015.1 hPa | 0 mm | - | 426 W/m² | - |
| 1777574010 | 19.44° C | 87% | 1015 hPa | 0 mm | - | 475 W/m² | - |
| 1777573709 | 20° C | 89% | 1015.1 hPa | 0 mm | - | 215 W/m² | - |
| 1777573406 | 20° C | 90% | 1015.1 hPa | 0 mm | - | 408 W/m² | - |
| 1777573102 | 19.44° C | 92% | 1015.3 hPa | 0 mm | - | 638 W/m² | - |
| 1777572799 | 18.89° C | 93% | 1015.7 hPa | 1.78 mm | - | 736 W/m² | - |
| 1777572495 | 18.89° C | 92% | 1015.3 hPa | 1.78 mm | - | 302 W/m² | - |
* Rain latest hour (hover to see other rain measurements)
** Current wind speed in m/s (hover to see current wind gust speed)